Domov               UVHVVR             MKGP            O straneh              
ZDRAVSTVENO VARSTVO RASTLIN
  MREŽA AGROMET. POSTAJ
 ► PROGNOSTIČNA OBVESTILA
AGROMETEOROLOŠKI PODATKI -
ARSO
OBVLADOVANJE TVEGANJ ZARADI
NEUGODNIH VREMENSKIH RAZMER
  ► NARAVNE NESREČE
  ► SUŠA/MOČA
  ► NAMAKANJE
  ► ŽLED (gozdarstvo)
KARTOGRAFSKI PRIKAZI
SPLETNE POVEZAVE
PROJEKTI IN PUBLIKACIJE

AGROMETEOROLOŠKA MREŽA: VREMENSKE POSTAJE IN FENOLOŠKA OPAZOVANJA

Pregled podatkov za lokacijo Kozana, meteorološka postaja 863701

Pregled senzorjev na lokaciji

ID Ime Zadnja
vrednost
Datum
zadnje
spremembe
Tip
senzorja
4188 Omočenost lista (U) 0 U 25.2.2018 16:00 A730WET
4189 Padavine (mm) 0 mm 25.2.2018 16:00 Rain-O-Matic
4187 Relativna vlaga 2 m (% RH) 33,35 % RH 25.2.2018 16:00 50YA
4186 Temperatura 2 m (°C) -0,81 °C 25.2.2018 16:00 50YA

Pregled podatkov zadnjih 24 ur

Zap.
št.
Datum in čas Kozana
Omočenost
lista
Padavine Relativna
vlaga
2
m
Temperatura
2
m
1 25.2.2018 16:30
2 25.2.2018 16:00 0 0 33,4 -0,8
3 25.2.2018 15:30 0 0 32,9 -0,6
4 25.2.2018 15:00 0 0 32,4 -0,4
5 25.2.2018 14:30 0 0 31,8 -0,4
6 25.2.2018 14:00 0 0 30,8 -0,3
7 25.2.2018 13:30 0 0 30,3 -0,7
8 25.2.2018 13:00 0 0 29,9 -0,8
9 25.2.2018 12:30 0 0 29,9 -0,7
10 25.2.2018 12:00 0 0 29,2 -0,8
11 25.2.2018 11:30 0 0 29,7 -1,1
12 25.2.2018 11:00 0 0 31,5 -1,1
13 25.2.2018 10:30 0 0 34,1 -1,7
14 25.2.2018 10:00 0 0 36 -2,3
15 25.2.2018 09:30 0 0 39,2 -3
16 25.2.2018 09:00 0 0 41,4 -3,2
17 25.2.2018 08:30 0 0 41,9 -3,2
18 25.2.2018 08:00 0 0 40,9 -3,2
19 25.2.2018 07:30 0 0 40,6 -3,1
20 25.2.2018 07:00 0 0 41,5 -3
21 25.2.2018 06:30 0 0 41,3 -2,9
22 25.2.2018 06:00 0 0 44,9 -3,1
23 25.2.2018 05:30 0 0 45,7 -2,9
24 25.2.2018 05:00 0 0 45,9 -2,5
25 25.2.2018 04:30 0 0 46,9 -2,2
26 25.2.2018 04:00 0 0 48,8 -2,1
27 25.2.2018 03:30 0 0 50,4 -1,9
28 25.2.2018 03:00 0 0 51,8 -1,7
29 25.2.2018 02:30 0 0 53,2 -1,5
30 25.2.2018 02:00 0 0 54,6 -1,2
31 25.2.2018 01:30 0 0 56,2 -1,2
32 25.2.2018 01:00 0 0 56,9 -1,1
33 25.2.2018 00:30 0 0 56,7 -1
34 25.2.2018 00:00 0 0 56,8 -0,9
35 24.2.2018 23:30 0 0 57,3 -0,9
36 24.2.2018 23:00 0 0 57,8 -0,8
37 24.2.2018 22:30 0 0 57,5 -0,6
38 24.2.2018 22:00 0 0 56 -0,3
39 24.2.2018 21:30 0 0 54,3 0,1
40 24.2.2018 21:00 0 0 51,6 0,8
41 24.2.2018 20:30 0 0 48,4 1,4
42 24.2.2018 20:00 0 0 46,3 2
43 24.2.2018 19:30 0 0 43,5 2,5
44 24.2.2018 19:00 0 0 37,9 3,3
45 24.2.2018 18:30 0 0 38,8 3,6
46 24.2.2018 18:00 0 0 42,7 3,8
47 24.2.2018 17:30 0 0 45,9 4,4
48 24.2.2018 17:00 0 0 51,3 4,7
© 2011 Ministrstvo za kmetijstvo, gozdarstvo in prehrano. Vse pravice pridržane.